When you browse on this site, cookies collect data to enhance your experience and personalize the content and advertising you see.
Visit our Privacy Policy to learn more. By continuing to use the site, you agree to this use of cookies and data.
  • Em Portugal
  • Lista de países
  • Para 7 dias
  • Temperatura da água
  • Mapas de satélite
  • Mapa do tempo
  • Widgets de tempo
  • user-avatar
    Iniciar Sessão

    Previsão horária em Kolce

    Hoje, 19 Dezembro, Quarta-feira

    Tempo Temperatura Precipitação Vento Pressão Humidade
    00:00 -4°C° 0 mm 2 m/s 719 mmHg 92%
    01:00 -5°C° 0 mm 3 m/s 719 mmHg 92%
    02:00 -5°C° 0 mm 3 m/s 718 mmHg 91%
    03:00 -5°C° 0 mm 3 m/s 718 mmHg 91%
    04:00 -5°C° 0 mm 3 m/s 718 mmHg 90%
    05:00 -5°C° 0 mm 3 m/s 718 mmHg 90%
    06:00 -5°C° 0 mm 3 m/s 717 mmHg 89%
    07:00 -5°C° 0 mm 3 m/s 717 mmHg 89%
    08:00 -4°C° 0 mm 4 m/s 717 mmHg 86%
    09:00 -4°C° 0 mm 4 m/s 717 mmHg 83%
    10:00 -4°C° 0 mm 5 m/s 717 mmHg 81%
    11:00 -4°C° 0 mm 5 m/s 717 mmHg 79%
    12:00 -4°C° 0 mm 5 m/s 716 mmHg 78%
    13:00 -2°C° 0 mm 5 m/s 716 mmHg 76%
    14:00 -4°C° 0 mm 5 m/s 716 mmHg 77%
    15:00 -4°C° 0 mm 5 m/s 716 mmHg 79%
    16:00 -4°C° 0 mm 4 m/s 715 mmHg 80%
    17:00 -4°C° 0 mm 4 m/s 715 mmHg 80%
    18:00 -4°C° 0 mm 4 m/s 715 mmHg 79%
    19:00 -4°C° 0 mm 4 m/s 715 mmHg 79%
    20:00 -4°C° 0.1 mm 4 m/s 715 mmHg 80%
    21:00 -4°C° 0.1 mm 4 m/s 715 mmHg 80%
    22:00 -4°C° 0.1 mm 4 m/s 714 mmHg 80%
    23:00 -4°C° 0.1 mm 4 m/s 714 mmHg 80%

    Amanhã, 20 Dezembro, Quinta-feira

    Tempo Temperatura Precipitação Vento Pressão Humidade
    00:00 -4°C° 0.1 mm 4 m/s 714 mmHg 80%
    01:00 -5°C° 0.1 mm 3 m/s 714 mmHg 79%
    02:00 -5°C° 0.1 mm 3 m/s 714 mmHg 80%
    03:00 -5°C° 0.1 mm 3 m/s 714 mmHg 81%
    04:00 -5°C° 0.1 mm 3 m/s 714 mmHg 82%
    05:00 -6°C° 0.1 mm 3 m/s 714 mmHg 83%
    06:00 -6°C° 0.1 mm 3 m/s 714 mmHg 83%
    07:00 -6°C° 0.1 mm 3 m/s 714 mmHg 84%
    08:00 -6°C° 0.1 mm 3 m/s 714 mmHg 83%
    09:00 -5°C° 0.1 mm 3 m/s 714 mmHg 82%
    10:00 -5°C° 0.1 mm 4 m/s 714 mmHg 82%
    11:00 -4°C° 0.2 mm 4 m/s 714 mmHg 83%
    12:00 -4°C° 0.2 mm 3 m/s 714 mmHg 83%
    13:00 -2°C° 0.2 mm 3 m/s 714 mmHg 84%
    14:00 -2°C° 0.1 mm 3 m/s 714 mmHg 86%
    15:00 -2°C° 0.1 mm 3 m/s 714 mmHg 87%
    16:00 -2°C° 0.1 mm 3 m/s 714 mmHg 89%
    17:00 -2°C° 0 mm 3 m/s 714 mmHg 89%
    18:00 -3°C° 0 mm 4 m/s 714 mmHg 89%
    19:00 -2°C° 0 mm 4 m/s 714 mmHg 89%
    20:00 -2°C° 0 mm 4 m/s 715 mmHg 89%
    21:00 -2°C° 0 mm 4 m/s 715 mmHg 90%
    22:00 -2°C° 0 mm 4 m/s 715 mmHg 90%
    23:00 -2°C° 0 mm 4 m/s 715 mmHg 90%

    Depois de amanhã, 21 Dezembro, Sexta-feira

    Tempo Temperatura Precipitação Vento Pressão Humidade
    00:00 -2°C° 0 mm 4 m/s 715 mmHg 90%
    01:00 -2°C° 0 mm 4 m/s 715 mmHg 90%
    02:00 -2°C° 0 mm 4 m/s 714 mmHg 90%
    03:00 -2°C° 0 mm 4 m/s 714 mmHg 90%
    04:00 -2°C° 0 mm 4 m/s 714 mmHg 89%
    05:00 -2°C° 0.1 mm 4 m/s 714 mmHg 89%
    06:00 -2°C° 0.1 mm 4 m/s 713 mmHg 89%
    07:00 -2°C° 0.1 mm 4 m/s 713 mmHg 89%
    08:00 -1°C° 0.1 mm 5 m/s 713 mmHg 88%
    09:00 -1°C° 0.1 mm 5 m/s 712 mmHg 88%
    10:00 -1°C° 0.1 mm 5 m/s 712 mmHg 87%
    11:00 -1°C° 0.2 mm 5 m/s 711 mmHg 86%
    12:00 -1°C° 0.2 mm 5 m/s 711 mmHg 86%
    13:00 -1°C° 0.2 mm 6 m/s 710 mmHg 85%
    14:00 -1°C° 0.7 mm 6 m/s 709 mmHg 85%
    15:00 -2°C° 0.7 mm 6 m/s 708 mmHg 84%
    16:00 -2°C° 0.7 mm 7 m/s 708 mmHg 84%
    17:00 -1°C° 1.3 mm 7 m/s 707 mmHg 85%
    18:00 -1°C° 1.3 mm 7 m/s 707 mmHg 86%
    19:00 0°C° 1.3 mm 8 m/s 706 mmHg 86%
    20:00 +2°C° 0.2 mm 7 m/s 706 mmHg 87%
    21:00 +2°C° 0.2 mm 7 m/s 706 mmHg 88%
    22:00 +3°C° 0.2 mm 7 m/s 706 mmHg 89%
    23:00 +3°C° 0 mm 7 m/s 706 mmHg 88%

    22 Dezembro, Sábado

    Tempo Temperatura Precipitação Vento Pressão Humidade
    00:00 +2°C° 0 mm 6 m/s 707 mmHg 86%
    01:00 +2°C° 0 mm 6 m/s 707 mmHg 85%
    02:00 +2°C° 0 mm 6 m/s 707 mmHg 84%
    03:00 +1°C° 0 mm 6 m/s 707 mmHg 84%
    04:00 +1°C° 0 mm 6 m/s 707 mmHg 84%
    05:00 +1°C° 0 mm 5 m/s 707 mmHg 85%
    06:00 +1°C° 0 mm 5 m/s 707 mmHg 86%
    07:00 +1°C° 0 mm 4 m/s 707 mmHg 86%
    08:00 +1°C° 0.1 mm 4 m/s 706 mmHg 88%
    09:00 +2°C° 0.1 mm 5 m/s 706 mmHg 89%
    10:00 +2°C° 0.1 mm 5 m/s 706 mmHg 90%
    11:00 +3°C° 0.2 mm 6 m/s 705 mmHg 88%
    12:00 +4°C° 0.2 mm 7 m/s 705 mmHg 86%
    13:00 +4°C° 0.2 mm 8 m/s 704 mmHg 85%
    14:00 +4°C° 0.1 mm 8 m/s 705 mmHg 84%
    15:00 +4°C° 0.1 mm 7 m/s 705 mmHg 83%
    16:00 +3°C° 0.1 mm 7 m/s 706 mmHg 82%
    17:00 +3°C° 0.1 mm 7 m/s 707 mmHg 83%
    18:00 +2°C° 0.1 mm 6 m/s 707 mmHg 85%
    19:00 +2°C° 0.1 mm 6 m/s 708 mmHg 86%
    20:00 +2°C° 0 mm 6 m/s 708 mmHg 85%
    21:00 +2°C° 0 mm 6 m/s 708 mmHg 83%
    22:00 +1°C° 0 mm 6 m/s 708 mmHg 82%
    23:00 0°C° 0.2 mm 7 m/s 709 mmHg 82%

    23 Dezembro, Domingo

    Tempo Temperatura Precipitação Vento Pressão Humidade
    00:00 +2°C° 0.2 mm 7 m/s 709 mmHg 82%
    01:00 +1°C° 0.2 mm 8 m/s 710 mmHg 82%
    02:00 +2°C° 0.2 mm 7 m/s 710 mmHg 83%
    03:00 0°C° 0.2 mm 7 m/s 711 mmHg 84%
    04:00 +1°C° 0.2 mm 6 m/s 711 mmHg 84%
    05:00 +1°C° 0.1 mm 6 m/s 712 mmHg 85%
    06:00 +1°C° 0.1 mm 6 m/s 712 mmHg 85%
    07:00 0°C° 0.1 mm 5 m/s 712 mmHg 85%
    08:00 +1°C° 0 mm 6 m/s 713 mmHg 84%
    09:00 +1°C° 0 mm 6 m/s 713 mmHg 83%
    10:00 +1°C° 0 mm 6 m/s 713 mmHg 82%
    11:00 +1°C° 0 mm 6 m/s 713 mmHg 80%
    12:00 +2°C° 0 mm 6 m/s 714 mmHg 79%
    13:00 +2°C° 0 mm 6 m/s 714 mmHg 77%
    14:00 +1°C° 0.1 mm 6 m/s 714 mmHg 79%
    15:00 +1°C° 0.1 mm 5 m/s 714 mmHg 81%
    16:00 +1°C° 0.1 mm 5 m/s 714 mmHg 82%
    17:00 +1°C° 0.1 mm 5 m/s 714 mmHg 82%
    18:00 0°C° 0.1 mm 5 m/s 714 mmHg 82%
    19:00 -1°C° 0.1 mm 6 m/s 714 mmHg 83%
    20:00 -1°C° 0 mm 6 m/s 715 mmHg 83%
    21:00 -1°C° 0 mm 6 m/s 715 mmHg 83%
    22:00 -1°C° 0 mm 6 m/s 715 mmHg 83%
    23:00 -1°C° 0.1 mm 6 m/s 715 mmHg 84%

    24 Dezembro, Segunda-feira

    Tempo Temperatura Precipitação Vento Pressão Humidade
    00:00 -1°C° 0.1 mm 6 m/s 716 mmHg 85%
    01:00 0°C° 0.1 mm 5 m/s 716 mmHg 86%
    02:00 0°C° 0.1 mm 5 m/s 716 mmHg 87%
    03:00 -1°C° 0.1 mm 4 m/s 716 mmHg 88%
    04:00 -1°C° 0.1 mm 4 m/s 717 mmHg 89%
    05:00 0°C° 0.1 mm 3 m/s 717 mmHg 90%
    06:00 0°C° 0.1 mm 3 m/s 717 mmHg 91%
    07:00 +1°C° 0.1 mm 2 m/s 718 mmHg 92%
    08:00 0°C° 0.1 mm 3 m/s 718 mmHg 90%
    09:00 0°C° 0.1 mm 3 m/s 719 mmHg 88%
    10:00 0°C° 0.1 mm 4 m/s 719 mmHg 86%
    11:00 0°C° 0.1 mm 4 m/s 719 mmHg 83%
    12:00 +1°C° 0.1 mm 4 m/s 719 mmHg 81%
    13:00 +1°C° 0.1 mm 5 m/s 719 mmHg 78%
    14:00 +1°C° 0.1 mm 4 m/s 720 mmHg 80%
    15:00 +1°C° 0.1 mm 3 m/s 720 mmHg 83%
    16:00 +1°C° 0.1 mm 3 m/s 720 mmHg 85%
    17:00 0°C° 0 mm 3 m/s 720 mmHg 86%
    18:00 0°C° 0 mm 3 m/s 720 mmHg 88%
    19:00 -1°C° 0 mm 2 m/s 720 mmHg 90%
    20:00 -1°C° 0 mm 2 m/s 720 mmHg 90%
    21:00 -1°C° 0 mm 2 m/s 720 mmHg 90%
    22:00 -1°C° 0 mm 2 m/s 721 mmHg 90%
    23:00 -1°C° 0 mm 2 m/s 720 mmHg 91%
    Mostrar mais